Location: Unspecified
(41.1637°N, 24.2901°E)
Time: 06:22:41
(UTC+01:00)

ISS - Pass Details

Date: 06 December 2019
Orbit: 411 x 421 km, 51.6° (Epoch: 15 December)

Event Time Altitude Azimuth Distance (km) Brightness Sun altitude
Rises 18:27:18 0° 305° (NW) 2,362 0.7 -28.1°
Reaches altitude 10° 18:29:24 10° 305° (NW) 1,498 -0.4 -28.5°
Enters shadow 18:29:48 13° 305° (NW) 1,334 -0.7 -28.6°
